Time,TemperatureF,DewpointF,PressureIn,WindDirection,WindDirectionDegrees,WindSpeedMPH,WindSpeedGustMPH,Humidity,HourlyPrecipIn,Conditions,Clouds,dailyrainin,SoftwareType,DateUTC
2013-05-11 00:03:00,55.0,55.0,30.01,SSE,160,0.0,14.0,99,0.00,,,0.00,,2013-05-11 04:03:00,
2013-05-11 00:12:00,55.0,55.0,30.01,SSE,160,0.0,0.0,99,0.00,,,0.00,,2013-05-11 04:12:00,
2013-05-11 00:23:00,55.0,55.0,30.01,SSE,160,0.0,0.0,99,0.00,,,0.00,,2013-05-11 04:23:00,
2013-05-11 00:33:00,55.0,55.0,30.01,SSE,160,0.0,0.0,99,0.00,,,0.00,,2013-05-11 04:33:00,
2013-05-11 00:43:00,55.0,55.0,30.00,SSE,160,0.0,14.0,99,0.00,,,0.00,,2013-05-11 04:43:00,
2013-05-11 00:52:00,55.0,55.0,30.00,SSE,160,0.0,14.0,99,0.00,,,0.00,,2013-05-11 04:52:00,
2013-05-11 01:02:00,55.0,55.0,30.00,SSE,160,0.0,14.0,99,0.00,,,0.00,,2013-05-11 05:02:00,
2013-05-11 01:12:00,56.0,56.0,29.98,South,184,0.0,14.0,99,0.00,,,0.00,,2013-05-11 05:12:00,
2013-05-11 01:22:00,56.0,56.0,29.98,South,184,0.0,14.0,99,0.00,,,0.00,,2013-05-11 05:22:00,
2013-05-11 01:32:00,56.0,56.0,29.98,South,184,0.0,14.0,99,0.00,,,0.00,,2013-05-11 05:32:00,
2013-05-11 01:42:00,56.0,56.0,29.97,SSE,167,0.0,14.0,99,0.00,,,0.00,,2013-05-11 05:42:00,
2013-05-11 01:52:00,56.0,56.0,29.97,SSE,167,0.0,14.0,99,0.00,,,0.00,,2013-05-11 05:52:00,
2013-05-11 02:02:00,56.0,56.0,29.97,SSE,167,0.0,14.0,99,0.00,,,0.00,,2013-05-11 06:02:00,
2013-05-11 02:12:00,56.0,56.0,29.97,SSE,167,0.0,14.0,99,0.00,,,0.00,,2013-05-11 06:12:00,
2013-05-11 02:21:00,56.0,56.0,29.96,South,184,0.0,14.0,99,0.00,,,0.00,,2013-05-11 06:21:00,
2013-05-11 02:32:00,56.0,56.0,29.96,South,184,0.0,14.0,99,0.00,,,0.00,,2013-05-11 06:32:00,
2013-05-11 02:42:00,54.0,54.0,29.95,SE,143,0.0,14.0,99,0.00,,,0.00,,2013-05-11 06:42:00,
2013-05-11 02:52:00,54.0,54.0,29.95,SE,143,0.0,14.0,99,0.00,,,0.00,,2013-05-11 06:52:00,
2013-05-11 03:02:00,54.0,54.0,29.95,SE,143,0.0,14.0,99,0.00,,,0.00,,2013-05-11 07:02:00,
2013-05-11 03:12:00,54.0,54.0,29.94,SSE,158,1.0,14.0,99,0.00,,,0.00,,2013-05-11 07:12:00,
2013-05-11 03:21:00,54.0,54.0,29.94,SSE,158,1.0,14.0,99,0.00,,,0.00,,2013-05-11 07:21:00,
2013-05-11 03:32:00,54.0,54.0,29.94,SSE,158,1.0,14.0,99,0.00,,,0.00,,2013-05-11 07:32:00,
2013-05-11 03:42:00,54.0,54.0,29.92,South,178,0.0,14.0,99,0.00,,,0.00,,2013-05-11 07:42:00,
2013-05-11 03:52:00,54.0,54.0,29.92,South,178,0.0,14.0,99,0.00,,,0.00,,2013-05-11 07:52:00,
2013-05-11 04:01:00,54.0,54.0,29.92,South,178,0.0,14.0,99,0.00,,,0.00,,2013-05-11 08:01:00,
2013-05-11 04:12:00,54.0,54.0,29.92,South,178,0.0,14.0,99,0.00,,,0.00,,2013-05-11 08:12:00,
2013-05-11 04:21:00,54.0,54.0,29.91,SSE,160,0.0,14.0,99,0.00,,,0.00,,2013-05-11 08:21:00,
2013-05-11 04:32:00,54.0,54.0,29.91,SSE,160,0.0,14.0,99,0.00,,,0.00,,2013-05-11 08:32:00,
2013-05-11 04:43:00,54.0,54.0,29.91,SSE,160,0.0,14.0,99,0.00,,,0.00,,2013-05-11 08:43:00,
2013-05-11 04:52:00,54.0,54.0,29.91,SSE,160,0.0,14.0,99,0.00,,,0.00,,2013-05-11 08:52:00,
2013-05-11 05:01:00,54.0,54.0,29.91,SSE,160,0.0,14.0,99,0.00,,,0.00,,2013-05-11 09:01:00,
2013-05-11 05:11:00,54.0,54.0,29.91,SSE,160,0.0,14.0,99,0.00,,,0.00,,2013-05-11 09:11:00,
2013-05-11 05:21:00,54.0,54.0,29.93,SSW,210,0.0,14.0,99,0.00,,,0.00,,2013-05-11 09:21:00,
2013-05-11 05:32:00,54.0,54.0,29.93,SSW,210,0.0,14.0,99,0.00,,,0.00,,2013-05-11 09:32:00,
2013-05-11 05:42:00,55.0,55.0,29.89,SSW,210,0.0,14.0,99,0.03,,,0.03,,2013-05-11 09:42:00,
2013-05-11 05:53:00,55.0,55.0,29.89,SSW,210,0.0,14.0,99,0.03,,,0.03,,2013-05-11 09:53:00,
2013-05-11 06:03:00,55.0,55.0,29.89,SSW,210,0.0,14.0,99,0.03,,,0.03,,2013-05-11 10:03:00,
2013-05-11 06:12:00,55.0,55.0,29.89,SSW,210,0.0,14.0,99,0.03,,,0.03,,2013-05-11 10:12:00,
2013-05-11 06:22:00,55.0,55.0,29.91,SSW,210,0.0,14.0,99,0.03,,,0.03,,2013-05-11 10:22:00,
2013-05-11 06:33:00,55.0,55.0,29.91,SSW,210,0.0,14.0,99,0.03,,,0.03,,2013-05-11 10:33:00,
2013-05-11 06:42:00,55.0,55.0,29.92,SSW,210,0.0,14.0,99,0.00,,,0.03,,2013-05-11 10:42:00,
2013-05-11 06:53:00,55.0,55.0,29.92,SSW,210,0.0,14.0,99,0.00,,,0.03,,2013-05-11 10:53:00,
2013-05-11 07:02:00,55.0,55.0,29.92,SSW,210,0.0,14.0,99,0.00,,,0.03,,2013-05-11 11:02:00,
2013-05-11 07:12:00,57.0,57.0,29.92,SSE,168,0.0,14.0,99,0.01,,,0.04,,2013-05-11 11:12:00,
2013-05-11 07:22:00,57.0,57.0,29.92,SSE,168,0.0,14.0,99,0.01,,,0.04,,2013-05-11 11:22:00,
2013-05-11 07:32:00,57.0,57.0,29.92,SSE,168,0.0,14.0,99,0.01,,,0.04,,2013-05-11 11:32:00,
2013-05-11 07:42:00,57.0,57.0,29.91,SW,216,2.0,14.0,99,0.01,,,0.04,,2013-05-11 11:42:00,
2013-05-11 07:52:00,57.0,57.0,29.91,SW,216,2.0,14.0,99,0.01,,,0.04,,2013-05-11 11:52:00,
2013-05-11 08:01:00,57.0,57.0,29.91,SW,216,2.0,14.0,99,0.01,,,0.04,,2013-05-11 12:01:00,
2013-05-11 08:11:00,57.0,57.0,29.91,SW,216,2.0,14.0,99,0.01,,,0.04,,2013-05-11 12:11:00,
2013-05-11 08:22:00,55.0,55.0,29.91,SW,224,2.0,14.0,99,0.00,,,0.04,,2013-05-11 12:22:00,
2013-05-11 08:32:00,55.0,55.0,29.91,SW,224,2.0,14.0,99,0.00,,,0.04,,2013-05-11 12:32:00,
2013-05-11 08:42:00,51.0,51.0,29.90,SSW,206,1.0,14.0,99,0.00,,,0.04,,2013-05-11 12:42:00,
2013-05-11 08:52:00,51.0,51.0,29.90,SSW,206,1.0,14.0,99,0.00,,,0.04,,2013-05-11 12:52:00,
2013-05-11 09:02:00,51.0,51.0,29.90,SSW,206,1.0,14.0,99,0.00,,,0.04,,2013-05-11 13:02:00,
2013-05-11 09:11:00,51.0,51.0,29.90,SSW,206,1.0,14.0,99,0.00,,,0.04,,2013-05-11 13:11:00,
2013-05-11 09:21:00,49.0,49.0,29.90,SW,232,5.0,14.0,99,0.00,,,0.04,,2013-05-11 13:21:00,
2013-05-11 09:32:00,49.0,49.0,29.90,SW,232,5.0,14.0,99,0.00,,,0.04,,2013-05-11 13:32:00,
2013-05-11 09:42:00,57.0,57.0,29.90,SW,234,0.0,14.0,99,0.00,,,0.04,,2013-05-11 13:42:00,
2013-05-11 09:52:00,57.0,57.0,29.90,SW,234,0.0,14.0,99,0.00,,,0.04,,2013-05-11 13:52:00,
2013-05-11 10:02:00,57.0,57.0,29.90,SW,234,0.0,14.0,99,0.00,,,0.04,,2013-05-11 14:02:00,
2013-05-11 10:11:00,57.0,57.0,29.90,SW,234,0.0,14.0,99,0.00,,,0.04,,2013-05-11 14:11:00,
2013-05-11 10:21:00,60.0,60.0,29.90,WSW,240,3.0,14.0,99,0.00,,,0.04,,2013-05-11 14:21:00,
2013-05-11 10:32:00,60.0,60.0,29.90,WSW,240,3.0,14.0,99,0.00,,,0.04,,2013-05-11 14:32:00,
2013-05-11 10:42:00,62.0,62.0,29.90,SSW,213,5.0,14.0,99,0.00,,,0.04,,2013-05-11 14:42:00,
2013-05-11 10:52:00,62.0,62.0,29.90,SSW,213,5.0,14.0,99,0.00,,,0.04,,2013-05-11 14:52:00,
2013-05-11 11:01:00,62.0,62.0,29.90,SSW,213,5.0,14.0,99,0.00,,,0.04,,2013-05-11 15:01:00,
2013-05-11 11:12:00,62.0,62.0,29.90,SSW,213,5.0,14.0,99,0.00,,,0.04,,2013-05-11 15:12:00,
2013-05-11 11:21:00,62.0,62.0,29.90,SSW,213,5.0,14.0,99,0.00,,,0.04,,2013-05-11 15:21:00,
2013-05-11 11:32:00,56.0,56.0,29.91,SSW,196,5.0,19.0,99,0.00,,,0.04,,2013-05-11 15:32:00,
2013-05-11 11:43:00,56.0,56.0,29.91,SSW,196,5.0,19.0,99,0.00,,,0.04,,2013-05-11 15:43:00,
2013-05-11 11:53:00,56.0,56.0,29.91,SSW,196,5.0,19.0,99,0.00,,,0.04,,2013-05-11 15:53:00,
2013-05-11 12:03:00,59.0,59.0,29.90,SSW,202,5.0,19.0,99,0.00,,,0.04,,2013-05-11 16:03:00,
2013-05-11 12:12:00,59.0,59.0,29.90,SSW,202,5.0,19.0,99,0.00,,,0.04,,2013-05-11 16:12:00,
2013-05-11 12:23:00,59.0,59.0,29.90,SSW,202,5.0,19.0,99,0.00,,,0.04,,2013-05-11 16:23:00,
2013-05-11 12:33:00,59.0,59.0,29.88,South,184,2.0,19.0,99,0.05,,,0.09,,2013-05-11 16:33:00,
2013-05-11 12:42:00,59.0,59.0,29.88,South,184,2.0,19.0,99,0.05,,,0.09,,2013-05-11 16:42:00,
2013-05-11 12:53:00,59.0,59.0,29.88,South,184,2.0,19.0,99,0.05,,,0.09,,2013-05-11 16:53:00,
2013-05-11 13:02:00,57.0,57.0,29.90,SSW,196,2.0,19.0,99,0.07,,,0.11,,2013-05-11 17:02:00,
2013-05-11 13:12:00,57.0,57.0,29.90,SSW,196,2.0,19.0,99,0.07,,,0.11,,2013-05-11 17:12:00,
2013-05-11 13:22:00,57.0,57.0,29.90,SSW,196,2.0,19.0,99,0.07,,,0.11,,2013-05-11 17:22:00,
2013-05-11 13:32:00,57.0,57.0,29.88,SW,216,6.0,19.0,99,0.04,,,0.13,,2013-05-11 17:32:00,
2013-05-11 13:42:00,57.0,57.0,29.88,SW,216,6.0,19.0,99,0.04,,,0.13,,2013-05-11 17:42:00,
2013-05-11 13:52:00,57.0,57.0,29.88,SW,216,6.0,19.0,99,0.04,,,0.13,,2013-05-11 17:52:00,
2013-05-11 14:01:00,58.0,58.0,29.88,SSW,205,4.0,19.0,99,0.02,,,0.13,,2013-05-11 18:01:00,
2013-05-11 14:12:00,58.0,58.0,29.88,SSW,205,4.0,19.0,99,0.02,,,0.13,,2013-05-11 18:12:00,
2013-05-11 14:21:00,58.0,58.0,29.88,SSW,205,4.0,19.0,99,0.02,,,0.13,,2013-05-11 18:21:00,
2013-05-11 14:32:00,58.0,58.0,29.88,SSW,205,4.0,19.0,99,0.02,,,0.13,,2013-05-11 18:32:00,
2013-05-11 14:42:00,58.0,58.0,29.88,SSW,205,4.0,19.0,99,0.02,,,0.13,,2013-05-11 18:42:00,
2013-05-11 15:02:00,58.0,58.0,29.86,SW,217,0.0,19.0,99,0.00,,,0.13,,2013-05-11 19:02:00,
2013-05-11 15:11:00,58.0,58.0,29.86,SW,217,0.0,19.0,99,0.00,,,0.13,,2013-05-11 19:11:00,
2013-05-11 15:22:00,58.0,58.0,29.86,SW,217,0.0,19.0,99,0.00,,,0.13,,2013-05-11 19:22:00,
2013-05-11 15:32:00,58.0,58.0,29.85,SSW,193,2.0,19.0,99,0.02,,,0.15,,2013-05-11 19:32:00,
2013-05-11 15:42:00,58.0,58.0,29.85,SSW,193,2.0,19.0,99,0.02,,,0.15,,2013-05-11 19:42:00,
2013-05-11 15:53:00,58.0,58.0,29.85,SSW,193,2.0,19.0,99,0.02,,,0.15,,2013-05-11 19:53:00,
2013-05-11 16:02:00,58.0,58.0,29.83,SSW,200,1.0,19.0,99,0.02,,,0.15,,2013-05-11 20:02:00,
2013-05-11 16:12:00,58.0,58.0,29.83,SSW,200,1.0,19.0,99,0.02,,,0.15,,2013-05-11 20:12:00,
2013-05-11 16:22:00,58.0,58.0,29.83,SSW,200,1.0,19.0,99,0.02,,,0.15,,2013-05-11 20:22:00,
2013-05-11 16:32:00,58.0,58.0,29.83,South,172,4.0,19.0,99,0.00,,,0.15,,2013-05-11 20:32:00,
2013-05-11 16:42:00,58.0,58.0,29.83,South,172,4.0,19.0,99,0.00,,,0.15,,2013-05-11 20:42:00,
2013-05-11 16:52:00,58.0,58.0,29.83,South,172,4.0,19.0,99,0.00,,,0.15,,2013-05-11 20:52:00,
2013-05-11 17:02:00,58.0,58.0,29.83,SSW,192,5.0,19.0,99,0.00,,,0.15,,2013-05-11 21:02:00,
2013-05-11 17:11:00,58.0,58.0,29.83,SSW,192,5.0,19.0,99,0.00,,,0.15,,2013-05-11 21:11:00,
2013-05-11 17:22:00,58.0,58.0,29.83,SSW,192,5.0,19.0,99,0.00,,,0.15,,2013-05-11 21:22:00,
2013-05-11 17:33:00,58.0,58.0,29.84,SSE,160,2.0,19.0,99,0.00,,,0.15,,2013-05-11 21:33:00,
2013-05-11 17:43:00,58.0,58.0,29.84,SSE,160,2.0,19.0,99,0.00,,,0.15,,2013-05-11 21:43:00,
2013-05-11 17:53:00,58.0,58.0,29.84,SSE,160,2.0,19.0,99,0.00,,,0.15,,2013-05-11 21:53:00,
2013-05-11 18:02:00,58.0,58.0,29.85,SSW,213,0.0,19.0,99,0.00,,,0.15,,2013-05-11 22:02:00,
2013-05-11 18:13:00,58.0,58.0,29.85,SSW,213,0.0,19.0,99,0.00,,,0.15,,2013-05-11 22:13:00,
2013-05-11 18:23:00,58.0,58.0,29.85,SSW,213,0.0,19.0,99,0.00,,,0.15,,2013-05-11 22:23:00,
2013-05-11 18:33:00,58.0,58.0,29.84,South,174,0.0,19.0,99,0.06,,,0.21,,2013-05-11 22:33:00,
2013-05-11 18:42:00,58.0,58.0,29.84,South,174,0.0,19.0,99,0.06,,,0.21,,2013-05-11 22:42:00,
2013-05-11 18:52:00,58.0,58.0,29.84,South,174,0.0,19.0,99,0.06,,,0.21,,2013-05-11 22:52:00,
2013-05-11 19:02:00,58.0,58.0,29.83,South,172,1.0,19.0,99,0.24,,,0.39,,2013-05-11 23:02:00,
2013-05-11 19:12:00,58.0,58.0,29.83,South,172,1.0,19.0,99,0.24,,,0.39,,2013-05-11 23:12:00,
2013-05-11 19:22:00,58.0,58.0,29.83,South,172,1.0,19.0,99,0.24,,,0.39,,2013-05-11 23:22:00,
2013-05-11 19:32:00,58.0,58.0,29.81,South,189,0.0,19.0,99,0.32,,,0.53,,2013-05-11 23:32:00,
2013-05-11 19:42:00,58.0,58.0,29.81,South,189,0.0,19.0,99,0.32,,,0.53,,2013-05-11 23:42:00,
2013-05-11 19:52:00,58.0,58.0,29.81,South,189,0.0,19.0,99,0.32,,,0.53,,2013-05-11 23:52:00,
2013-05-11 20:01:00,58.0,58.0,29.80,South,182,0.0,19.0,99,0.19,,,0.58,,2013-05-12 00:01:00,
2013-05-11 20:12:00,58.0,58.0,29.80,South,182,0.0,19.0,99,0.19,,,0.58,,2013-05-12 00:12:00,
2013-05-11 20:21:00,58.0,58.0,29.80,South,182,0.0,19.0,99,0.19,,,0.58,,2013-05-12 00:21:00,
2013-05-11 20:32:00,58.0,58.0,29.80,SSE,161,0.0,19.0,99,0.05,,,0.58,,2013-05-12 00:32:00,
2013-05-11 20:42:00,58.0,58.0,29.80,SSE,161,0.0,19.0,99,0.05,,,0.58,,2013-05-12 00:42:00,
2013-05-11 20:52:00,58.0,58.0,29.80,SSE,161,0.0,19.0,99,0.05,,,0.58,,2013-05-12 00:52:00,
2013-05-11 21:01:00,58.0,58.0,29.80,SSW,213,1.0,19.0,99,0.00,,,0.58,,2013-05-12 01:01:00,
2013-05-11 21:11:00,58.0,58.0,29.80,SSW,213,1.0,19.0,99,0.00,,,0.58,,2013-05-12 01:11:00,
2013-05-11 21:21:00,58.0,58.0,29.80,SSW,213,1.0,19.0,99,0.00,,,0.58,,2013-05-12 01:21:00,
2013-05-11 21:32:00,59.0,59.0,29.79,SSW,196,2.0,19.0,99,0.00,,,0.58,,2013-05-12 01:32:00,
2013-05-11 21:42:00,59.0,59.0,29.79,SSW,196,2.0,19.0,99,0.00,,,0.58,,2013-05-12 01:42:00,
2013-05-11 21:52:00,59.0,59.0,29.79,SSW,196,2.0,19.0,99,0.00,,,0.58,,2013-05-12 01:52:00,
2013-05-11 22:01:00,58.0,58.0,29.79,SSW,213,0.0,19.0,99,0.00,,,0.58,,2013-05-12 02:01:00,
2013-05-11 22:11:00,58.0,58.0,29.79,SSW,213,0.0,19.0,99,0.00,,,0.58,,2013-05-12 02:11:00,
2013-05-11 22:22:00,58.0,58.0,29.79,SSW,213,0.0,19.0,99,0.00,,,0.58,,2013-05-12 02:22:00,
2013-05-11 22:32:00,58.0,58.0,29.79,SW,226,0.0,19.0,99,0.00,,,0.58,,2013-05-12 02:32:00,
2013-05-11 22:42:00,58.0,58.0,29.79,SW,226,0.0,19.0,99,0.00,,,0.58,,2013-05-12 02:42:00,
2013-05-11 22:52:00,58.0,58.0,29.79,SW,226,0.0,19.0,99,0.00,,,0.58,,2013-05-12 02:52:00,
2013-05-11 23:01:00,57.0,57.0,29.79,SSE,150,0.0,19.0,99,0.00,,,0.58,,2013-05-12 03:01:00,
2013-05-11 23:11:00,57.0,57.0,29.79,SSE,150,0.0,19.0,99,0.00,,,0.58,,2013-05-12 03:11:00,
2013-05-11 23:22:00,57.0,57.0,29.79,SSE,150,0.0,19.0,99,0.00,,,0.58,,2013-05-12 03:22:00,
2013-05-11 23:33:00,56.0,56.0,29.78,WSW,246,0.0,19.0,99,0.00,,,0.58,,2013-05-12 03:33:00,
2013-05-11 23:43:00,56.0,56.0,29.78,WSW,246,0.0,19.0,99,0.00,,,0.58,,2013-05-12 03:43:00,
2013-05-11 23:53:00,56.0,56.0,29.78,WSW,246,0.0,19.0,99,0.00,,,0.58,,2013-05-12 03:53:00,